• In United Kingdom
  • List of Countries
  • For 7 days
  • Water Temperature
  • Satellite Maps
  • Weather Map
  • Weather Widgets
  • user-avatar
    Login

    Hourly Weather Ganja

    Today, 20 October, Saturday

    Time Temperature Precipitation Wind Pressure Humidity
    00:00 +16°C° 0 mm 1 mps 728 mmHg 81%
    01:00 +16°C° 0 mm 1 mps 728 mmHg 82%
    02:00 +16°C° 0 mm 1 mps 728 mmHg 82%
    03:00 +15°C° 0 mm 1 mps 728 mmHg 83%
    04:00 +15°C° 0 mm 1 mps 728 mmHg 82%
    05:00 +15°C° 0 mm 1 mps 728 mmHg 82%
    06:00 +15°C° 0 mm 1 mps 728 mmHg 81%
    07:00 +16°C° 0 mm 1 mps 728 mmHg 76%
    08:00 +19°C° 0 mm 1 mps 728 mmHg 71%
    09:00 +20°C° 0 mm 1 mps 727 mmHg 66%
    10:00 +21°C° 0 mm 1 mps 727 mmHg 62%
    11:00 +22°C° 0 mm 1 mps 727 mmHg 57%
    12:00 +23°C° 0 mm 1 mps 726 mmHg 53%
    13:00 +23°C° 0 mm 1 mps 726 mmHg 52%
    14:00 +24°C° 0 mm 1 mps 726 mmHg 51%
    15:00 +24°C° 0 mm 1 mps 725 mmHg 49%
    16:00 +23°C° 0.1 mm 1 mps 725 mmHg 54%
    17:00 +22°C° 0.1 mm 1 mps 726 mmHg 59%
    18:00 +21°C° 0.1 mm 1 mps 726 mmHg 63%
    19:00 +21°C° 0 mm 1 mps 726 mmHg 64%
    20:00 +20°C° 0 mm 1 mps 726 mmHg 65%
    21:00 +20°C° 0 mm 1 mps 726 mmHg 65%
    22:00 +19°C° 0 mm 1 mps 726 mmHg 67%
    23:00 +19°C° 0 mm 1 mps 726 mmHg 68%

    Tomorrow, 21 October, Sunday

    Time Temperature Precipitation Wind Pressure Humidity
    00:00 +18°C° 0 mm 1 mps 726 mmHg 70%
    01:00 +18°C° 0 mm 1 mps 726 mmHg 70%
    02:00 +18°C° 0 mm 1 mps 726 mmHg 70%
    03:00 +16°C° 0 mm 1 mps 726 mmHg 71%
    04:00 +16°C° 0 mm 1 mps 726 mmHg 70%
    05:00 +16°C° 0 mm 1 mps 726 mmHg 69%
    06:00 +16°C° 0 mm 1 mps 726 mmHg 68%
    07:00 +19°C° 0 mm 1 mps 726 mmHg 62%
    08:00 +20°C° 0 mm 1 mps 726 mmHg 56%
    09:00 +22°C° 0 mm 1 mps 726 mmHg 50%
    10:00 +23°C° 0 mm 1 mps 726 mmHg 46%
    11:00 +24°C° 0 mm 1 mps 726 mmHg 42%
    12:00 +25°C° 0 mm 2 mps 726 mmHg 38%
    13:00 +25°C° 0 mm 2 mps 725 mmHg 37%
    14:00 +25°C° 0 mm 2 mps 725 mmHg 37%
    15:00 +25°C° 0 mm 2 mps 725 mmHg 36%
    16:00 +24°C° 0 mm 1 mps 725 mmHg 40%
    17:00 +23°C° 0 mm 1 mps 725 mmHg 44%
    18:00 +22°C° 0 mm 1 mps 725 mmHg 48%
    19:00 +21°C° 0 mm 1 mps 726 mmHg 49%
    20:00 +21°C° 0 mm 1 mps 726 mmHg 51%
    21:00 +20°C° 0 mm 1 mps 726 mmHg 52%
    22:00 +20°C° 0 mm 1 mps 726 mmHg 53%
    23:00 +19°C° 0 mm 1 mps 726 mmHg 54%

    Day after tomorrow, 22 October, Monday

    Time Temperature Precipitation Wind Pressure Humidity
    00:00 +19°C° 0 mm 1 mps 726 mmHg 55%
    01:00 +18°C° 0 mm 1 mps 726 mmHg 55%
    02:00 +18°C° 0 mm 1 mps 726 mmHg 55%
    03:00 +18°C° 0 mm 1 mps 726 mmHg 55%
    04:00 +18°C° 0 mm 1 mps 726 mmHg 55%
    05:00 +18°C° 0 mm 1 mps 726 mmHg 54%
    06:00 +18°C° 0 mm 1 mps 726 mmHg 54%
    07:00 +19°C° 0 mm 1 mps 726 mmHg 50%
    08:00 +20°C° 0 mm 1 mps 726 mmHg 45%
    09:00 +21°C° 0 mm 2 mps 727 mmHg 41%
    10:00 +23°C° 0 mm 2 mps 726 mmHg 39%
    11:00 +24°C° 0 mm 2 mps 726 mmHg 38%
    12:00 +24°C° 0 mm 2 mps 726 mmHg 36%
    13:00 +25°C° 0 mm 2 mps 726 mmHg 36%
    14:00 +25°C° 0 mm 2 mps 726 mmHg 37%
    15:00 +25°C° 0 mm 2 mps 725 mmHg 37%
    16:00 +24°C° 0 mm 1 mps 726 mmHg 41%
    17:00 +23°C° 0 mm 1 mps 726 mmHg 44%
    18:00 +22°C° 0 mm 1 mps 726 mmHg 48%
    19:00 +21°C° 0 mm 1 mps 726 mmHg 50%
    20:00 +21°C° 0 mm 1 mps 726 mmHg 51%
    21:00 +20°C° 0 mm 1 mps 727 mmHg 53%
    22:00 +20°C° 0 mm 1 mps 727 mmHg 54%
    23:00 +19°C° 0 mm 1 mps 727 mmHg 54%

    23 October, Tuesday

    Time Temperature Precipitation Wind Pressure Humidity
    00:00 +17°C° 0 mm 0 mps 727 mmHg 55%
    01:00 +16°C° 0 mm 0 mps 727 mmHg 55%
    02:00 +16°C° 0 mm 0 mps 727 mmHg 55%
    03:00 +16°C° 0 mm 0 mps 727 mmHg 55%
    04:00 +15°C° 0 mm 0 mps 727 mmHg 55%
    05:00 +15°C° 0 mm 0 mps 727 mmHg 56%
    06:00 +15°C° 0 mm 0 mps 727 mmHg 56%
    07:00 +18°C° 0 mm 1 mps 727 mmHg 51%
    08:00 +20°C° 0 mm 1 mps 727 mmHg 46%
    09:00 +21°C° 0 mm 1 mps 727 mmHg 42%
    10:00 +22°C° 0 mm 1 mps 727 mmHg 40%
    11:00 +23°C° 0 mm 1 mps 727 mmHg 39%
    12:00 +24°C° 0 mm 2 mps 726 mmHg 37%
    13:00 +24°C° 0 mm 1 mps 726 mmHg 37%
    14:00 +24°C° 0 mm 1 mps 725 mmHg 37%
    15:00 +24°C° 0 mm 1 mps 725 mmHg 37%
    16:00 +23°C° 0 mm 1 mps 725 mmHg 41%
    17:00 +22°C° 0 mm 1 mps 725 mmHg 44%
    18:00 +21°C° 0 mm 1 mps 725 mmHg 48%
    19:00 +20°C° 0 mm 1 mps 726 mmHg 48%
    20:00 +20°C° 0 mm 1 mps 726 mmHg 48%
    21:00 +18°C° 0 mm 2 mps 726 mmHg 49%
    22:00 +18°C° 0 mm 2 mps 726 mmHg 49%
    23:00 +18°C° 0 mm 2 mps 726 mmHg 49%

    24 October, Wednesday

    Time Temperature Precipitation Wind Pressure Humidity
    00:00 +17°C° 0 mm 2 mps 726 mmHg 50%
    01:00 +17°C° 0 mm 2 mps 726 mmHg 51%
    02:00 +17°C° 0 mm 2 mps 725 mmHg 51%
    03:00 +17°C° 0 mm 3 mps 725 mmHg 52%
    04:00 +17°C° 0 mm 3 mps 725 mmHg 53%
    05:00 +16°C° 0 mm 2 mps 725 mmHg 53%
    06:00 +16°C° 0 mm 2 mps 725 mmHg 53%
    07:00 +18°C° 0 mm 2 mps 725 mmHg 49%
    08:00 +19°C° 0 mm 2 mps 725 mmHg 45%
    09:00 +21°C° 0 mm 2 mps 725 mmHg 40%
    10:00 +23°C° 0 mm 2 mps 724 mmHg 38%
    11:00 +24°C° 0 mm 2 mps 724 mmHg 35%
    12:00 +25°C° 0 mm 2 mps 723 mmHg 33%
    13:00 +25°C° 0 mm 2 mps 723 mmHg 32%
    14:00 +25°C° 0 mm 2 mps 722 mmHg 32%
    15:00 +26°C° 0 mm 2 mps 722 mmHg 31%
    16:00 +24°C° 0 mm 1 mps 722 mmHg 35%
    17:00 +23°C° 0 mm 1 mps 722 mmHg 39%
    18:00 +21°C° 0 mm 1 mps 722 mmHg 42%
    19:00 +21°C° 0 mm 1 mps 722 mmHg 43%
    20:00 +21°C° 0 mm 1 mps 722 mmHg 43%
    21:00 +20°C° 0 mm 1 mps 722 mmHg 44%
    22:00 +20°C° 0 mm 1 mps 721 mmHg 45%
    23:00 +19°C° 0 mm 1 mps 721 mmHg 45%

    25 October, Thursday

    Time Temperature Precipitation Wind Pressure Humidity
    00:00 +19°C° 0 mm 1 mps 720 mmHg 46%
    01:00 +18°C° 0 mm 2 mps 720 mmHg 46%
    02:00 +18°C° 0 mm 2 mps 720 mmHg 47%
    03:00 +17°C° 0 mm 2 mps 719 mmHg 47%
    04:00 +17°C° 0 mm 2 mps 719 mmHg 48%
    05:00 +17°C° 0 mm 2 mps 719 mmHg 49%
    06:00 +17°C° 0 mm 2 mps 719 mmHg 49%
    07:00 +18°C° 0 mm 2 mps 719 mmHg 46%
    08:00 +20°C° 0 mm 2 mps 719 mmHg 43%
    09:00 +21°C° 0 mm 3 mps 719 mmHg 39%
    10:00 +22°C° 0 mm 3 mps 718 mmHg 37%
    11:00 +23°C° 0 mm 4 mps 718 mmHg 36%
    12:00 +25°C° 0 mm 4 mps 717 mmHg 34%
    13:00 +25°C° 0 mm 4 mps 717 mmHg 34%
    14:00 +26°C° 0 mm 4 mps 717 mmHg 33%
    15:00 +26°C° 0 mm 3 mps 716 mmHg 33%
    16:00 +24°C° 0 mm 3 mps 716 mmHg 37%
    17:00 +23°C° 0 mm 2 mps 716 mmHg 40%
    18:00 +21°C° 0 mm 2 mps 717 mmHg 44%
    19:00 +20°C° 0 mm 2 mps 717 mmHg 44%
    20:00 +20°C° 0 mm 2 mps 717 mmHg 44%
    21:00 +20°C° 0 mm 2 mps 717 mmHg 44%
    22:00 +19°C° 0 mm 2 mps 717 mmHg 45%
    23:00 +19°C° 0 mm 2 mps 717 mmHg 45%
    Show more